Weather History for Buffalo, WY

Change the Weather History Date:

Wednesday, October 10, 2012

  Actual Average Record
Temperature  
Mean Temperature 50 °F 48 °F  
Max Temperature 66 °F 60 °F 76 °F (2007)
Min Temperature 35 °F 36 °F 11 °F (2009)
Degree Days  
Heating Degree Days 16 17  
Month to date heating degree days 158  
Since 1 July heating degree days 472  
Cooling Degree Days 0 0  
Month to date cooling degree days 0  
Year to date cooling degree days 491  
Moisture  
Dew Point 28 °F    
Average Humidity 46    
Maximum Humidity 67    
Minimum Humidity 23    
Precipitation  
Precipitation 0.00 in 0.03 in 0.11 in (2008)
Month to date precipitation 0.42  
Year to date precipitation 12.00  
Sea Level Pressure  
Sea Level Pressure 29.97 in    
Wind  
Wind Speed 7 mph (WSW)    
Max Wind Speed 10 mph    
Max Gust Speed -    
Visibility 10 miles    
Events      
T = Trace of Precipitation, MM = Missing Value Source: NWS Daily Summary

Daily Weather History Graph

Daily Weather History Graph

Search for Another Location

Airport:

Trip Planner

Search our weather history database for the weather conditions in past years. The results will help you decide how hot, cold, wet, or windy it might be!

Date:

Astronomy

Oct. 10, 2012 Rise Set
Actual Time 7:16 AM MDT 6:30 PM MDT
Civil Twilight 6:47 AM MDT 6:59 PM MDT
Nautical Twilight 6:13 AM MDT 7:33 PM MDT
Astronomical Twilight 5:39 AM MDT 8:06 PM MDT
Moon 1:44 AM MDT (10/10) 3:44 PM MDT (10/10)
Length of Visible Light 12h 12m
Length of Day
11h 14m
Waning Crescent, 26% of the Moon is Illuminated
Oct 10
Waning Crescent
Oct 15
New
Oct 21
First Quarter
Oct 29
Full
Nov 6
Last Quarter

Hourly Weather History & Observations

Time (MDT) Temp. Windchill Dew Point Humidity Pressure Visibility Wind Dir Wind Speed Gust Speed Precip Events Conditions
12:53 AM 36.0 °F 29.0 °F 25.0 °F 64% 30.14 in 10.0 mi WSW 9.2 mph - N/A   Clear
1:53 AM 36.0 °F 29.0 °F 26.1 °F 67% 30.12 in 10.0 mi WSW 9.2 mph - N/A   Clear
2:53 AM 37.0 °F 31.0 °F 25.0 °F 62% 30.09 in 10.0 mi WSW 8.1 mph - N/A   Clear
3:53 AM 37.9 °F 33.5 °F 25.0 °F 60% 30.06 in 10.0 mi SW 5.8 mph - N/A   Clear
4:53 AM 41.0 °F - 24.1 °F 51% 30.02 in 10.0 mi Calm Calm - N/A   Clear
5:53 AM 36.0 °F - 24.1 °F 62% 30.02 in 10.0 mi Calm Calm - N/A   Clear
6:53 AM 35.1 °F 30.1 °F 24.1 °F 64% 30.04 in 10.0 mi Variable 5.8 mph - N/A   Clear
7:53 AM 36.0 °F 31.1 °F 25.0 °F 64% 30.04 in 10.0 mi WSW 5.8 mph - N/A   Clear
8:53 AM 46.0 °F 42.5 °F 30.0 °F 54% 30.00 in 10.0 mi SW 6.9 mph - N/A   Clear
9:53 AM 51.1 °F - 30.9 °F 46% 29.99 in 10.0 mi SE 4.6 mph - N/A   Clear
10:53 AM 55.9 °F - 33.1 °F 42% 29.94 in 10.0 mi SE 8.1 mph - N/A   Clear
11:53 AM 61.0 °F - 28.9 °F 30% 29.93 in 10.0 mi SE 9.2 mph - N/A   Clear
12:53 PM 62.1 °F - 27.0 °F 26% 29.91 in 10.0 mi SE 8.1 mph - N/A   Clear
1:53 PM 64.0 °F - 26.1 °F 24% 29.88 in 10.0 mi Variable 3.5 mph - N/A   Clear
2:53 PM 64.9 °F - 26.1 °F 23% 29.87 in 10.0 mi Variable 4.6 mph - N/A   Clear
3:53 PM 64.9 °F - 26.1 °F 23% 29.86 in 10.0 mi SW 4.6 mph - N/A   Clear
4:53 PM 64.9 °F - 26.1 °F 23% 29.85 in 10.0 mi Calm Calm - N/A   Clear
5:53 PM 63.0 °F - 27.0 °F 26% 29.87 in 10.0 mi Calm Calm - N/A   Clear
6:53 PM 52.0 °F - 30.9 °F 45% 29.91 in 10.0 mi WSW 6.9 mph - N/A   Clear
7:53 PM 52.0 °F - 30.0 °F 43% 29.94 in 10.0 mi NW 5.8 mph - N/A   Clear
8:53 PM 48.0 °F - 30.0 °F 50% 29.94 in 10.0 mi NNW 10.4 mph - N/A   Clear
9:53 PM 50.0 °F - 30.9 °F 48% 29.95 in 10.0 mi NNW 10.4 mph - N/A   Clear
10:53 PM 48.0 °F - 30.0 °F 50% 29.97 in 10.0 mi NW 9.2 mph - N/A   Clear
11:53 PM 45.0 °F 40.1 °F 34.0 °F 65% 29.99 in 10.0 mi NNW 9.2 mph - N/A   Clear